www.pogodaiklimat.ru

Погода и климат >> Архив погоды >> Норвегия >> Маяк Torsvag


ПОГОДА на Маяке Torsvag

  • Прогноз погоды на Маяке Torsvag
  • Монитор погоды на Маяке Torsvag

АРХИВ ПОГОДЫ на Маяке Torsvag

Время (UTC), дата Ветер
(напр.,м/с)
 
Видим.   Явления Облачность Т
(С)
Тd
(С)
f
(%)
Тe
(С)
Тes
(С)
Комфортность P
(гПа)
Po
(гПа)
Тmin
(С)
Tmax
(С)
R
(мм)
R24
(мм)
S
(см)
10 10.07 З 1
{2}
н/о н/о +11.5 +7.4 76 +11 +11 1017.4 1014.5
11 10.07 З 1
{3}
н/о н/о +11.9 +7.4 74 +12 +12 1017.3 1014.4
12 10.07 Ю 2 н/о н/о +11.3 +7.0 75 +10 +10 1017.3 1014.4
13 10.07 ЮЗ 2
{4}
н/о н/о +11.2 +6.8 74 +10 +10 1017.0 1014.1
14 10.07 С 2
{3}
н/о н/о +12.2 +7.3 72 +11 +11 1016.7 1013.8
15 10.07 Ю 3
{5}
н/о н/о +12.7 +6.5 66 +11 +11 1016.4 1013.5
16 10.07 З 1
{5}
н/о н/о +11.4 +6.8 73 +11 +11 1016.3 1013.4
17 10.07 Ю 1
{2}
н/о н/о +12.0 +6.7 70 +12 +12 1016.1 1013.2
18 10.07 Ю 2
{5}
н/о н/о +11.7 +6.6 71 +11 +11 1016.0 1013.1 +8.7 +12.9
19 10.07 Ю 1
{3}
н/о н/о +10.7 +6.3 74 +11 +11 1015.8 1012.9
20 10.07 З 1
{7}
н/о н/о +10.5 +6.3 75 +10 +10 1015.8 1012.9
21 10.07 Ю 2
{4}
н/о н/о +10.0 +6.2 77 +9 +9 1015.6 1012.7
22 10.07 Ю 2
{4}
н/о н/о +9.5 +6.4 81 +8 +8 1015.4 1012.5
23 10.07 С 1
{3}
н/о н/о +9.4 +6.3 81 +9 +9 1015.0 1012.1
00 11.07 С 2
{7}
н/о н/о +9.1 +6.2 82 +7 +7 1014.8 1011.9
01 11.07 Ю 2
{3}
н/о н/о +9.4 +6.3 81 +8 +8 1014.5 1011.6
02 11.07 Ю 1
{3}
н/о н/о +9.1 +6.2 82 +9 +9 1014.5 1011.6
03 11.07 Ю 1
{3}
н/о н/о +9.1 +6.6 84 +8 +8 1014.5 1011.6
04 11.07 ЮЗ 1
{3}
н/о н/о +9.4 +6.5 82 +9 +9 1014.4 1011.5
05 11.07 С 2
{3}
н/о н/о +9.3 +6.4 82 +8 +8 1014.0 1011.1
06 11.07 Ю 1
{28}
н/о н/о +9.7 +6.6 81 +9 +9 1014.1 1011.2 +8.9 +11.7
07 11.07 С 2
{4}
н/о н/о +10.2 +7.1 81 +9 +9 1014.3 1011.4
08 11.07 С 2
{4}
н/о н/о +10.4 +6.9 79 +9 +9 1014.2 1011.3
09 11.07 С 4
{6}
н/о н/о +10.9 +7.0 77 +9 +9 1014.3 1011.4
10 11.07 С 4
{7}
н/о н/о +11.0 +6.8 75 +9 +9 1014.3 1011.4
11 11.07 С 3
{6}
н/о н/о +11.1 +6.9 75 +9 +9 1014.0 1011.1
12 11.07 С 5
{7}
н/о н/о +11.1 +6.7 74 +8 +8 1014.0 1011.1
13 11.07 С 6
{8}
н/о н/о +10.5 +6.3 75 +7 +7 1014.3 1011.4
14 11.07
{8}
н/о н/о +10.9 +6.9 76 1014.3 1011.4
15 11.07 С 5
{8}
н/о н/о +10.5 +6.3 75 +8 +8 1014.4 1011.5
16 11.07 С 6
{8}
н/о н/о +9.9 +5.7 75 +7 +7 1014.3 1011.4
17 11.07
{8}
н/о н/о +9.8 +5.4 74 1014.4 1011.5
18 11.07 С 5
{9}
н/о н/о +9.3 +5.7 78 +6 +6 1014.2 1011.3 +9.2 +11.5
19 11.07 С 4
{9}
н/о н/о +8.9 +5.5 79 +6 +6 1014.3 1011.4
20 11.07 С 3
{6}
н/о н/о +8.7 +5.5 80 +6 +6 1014.4 1011.5
21 11.07 С 2
{4}
н/о н/о +8.3 +5.2 81 +6 +6 1014.6 1011.6
22 11.07 СВ 1
{5}
н/о н/о +8.0 +5.1 82 +7 +7 1014.8 1011.8
23 11.07 В 1
{2}
н/о н/о +7.9 +5.2 83 +7 +7 1014.7 1011.7
00 12.07 С 1
{9}
н/о н/о +7.6 +5.1 84 +7 +7 1014.7 1011.7
01 12.07 ЮВ 1
{5}
н/о н/о +7.5 +4.8 83 +7 +7 1014.7 1011.7
02 12.07 ЮВ 1
{3}
н/о н/о +7.5 +5.0 84 +7 +7 1014.7 1011.7
03 12.07 СВ 3
{6}
н/о н/о +7.8 +5.1 83 +5 +5 1014.7 1011.7
04 12.07 В 1
{6}
н/о н/о +7.8 +4.9 82 +7 +7 1014.7 1011.7
05 12.07 ЮВ 1
{4}
н/о н/о +8.0 +5.1 82 +7 +7 1015.0 1012.0
06 12.07 С 3
{6}
н/о н/о +8.4 +5.3 81 +6 +6 1014.9 1011.9 +7.4 +9.4
07 12.07
{6}
н/о н/о +9.0 +5.9 81 1015.0 1012.1
08 12.07 С 2
{5}
н/о н/о +9.3 +5.9 79 +8 +8 1015.1 1012.2
09 12.07 С 4
{5}
н/о н/о +10.2 +6.2 76 +8 +8 1015.0 1012.1
10 12.07 С 4
{5}
н/о н/о +10.5 +6.5 76 +8 +8 1015.0 1012.1
11 12.07 С 5
{6}
н/о н/о +10.8 +6.8 76 +8 +8 1015.0 1012.1
12 12.07 С 5
{6}
н/о н/о +11.0 +7.1 77 +8 +8 1014.9 1012.0
13 12.07 С 5
{6}
н/о н/о +10.8 +7.3 79 +8 +8 1014.9 1012.0
14 12.07 С 5
{7}
н/о н/о +10.9 +7.4 79 +8 +8 1014.9 1012.0
15 12.07 С 6
{9}
н/о н/о +10.8 +7.7 81 +8 +8 1014.7 1011.8
16 12.07 С 8
{11}
н/о н/о +10.3 +7.6 83 +6 +6 1014.5 1011.6
17 12.07 С 8
{11}
н/о н/о +10.5 +7.2 80 +7 +7 1014.6 1011.7
18 12.07 С 9
{12}
н/о н/о +10.3 +6.8 79 +6 +6 1014.5 1011.6 +8.4 +11.3
19 12.07 С 8
{13}
н/о н/о +10.2 +6.7 79 +6 +6 1014.6 1011.7
20 12.07 С 7
{12}
н/о н/о +10.2 +6.2 76 +7 +7 1014.9 1012.0
21 12.07 Ю 2
{10}
н/о н/о +9.9 +5.9 76 +8 +8 1015.2 1012.3
22 12.07 ЮВ 1
{4}
н/о н/о +9.5 +5.9 78 +9 +9 1015.4 1012.5
23 12.07 ЮВ 3
{7}
н/о н/о +9.1 +6.0 81 +7 +7 1015.3 1012.4
00 13.07 ЮЗ 1
{13}
н/о н/о +8.8 +5.7 81 +8 +8 1015.6 1012.6
01 13.07 СВ 5
{9}
н/о н/о +8.6 +5.9 83 +5 +5 1015.5 1012.5
02 13.07 ЮВ 1
{7}
н/о н/о +8.6 +5.9 83 +8 +8 1015.6 1012.6
03 13.07 Ю 2
{6}
н/о н/о +8.9 +6.4 84 +7 +7 1015.3 1012.4
04 13.07 ЮВ 2
{3}
н/о н/о +9.5 +6.6 82 +8 +8 1015.3 1012.4
05 13.07 ЮВ 1
{2}
н/о н/о +10.0 +6.7 80 +10 +10 1015.3 1012.4
06 13.07 ЮЗ 1
{9}
н/о н/о +10.6 +6.9 78 +10 +10 1015.3 1012.4 +8.4 +10.7
07 13.07 С 3
{8}
н/о н/о +11.4 +7.1 75 +10 +10 1015.4 1012.5
08 13.07 С 11
{14}
н/о н/о +9.9 +6.1 77 +5 +5 1015.5 1012.6
09 13.07 СВ 5
{16}
н/о н/о +11.5 +5.6 67 +9 +9 1015.8 1012.9
10 13.07 С 8
{14}
н/о н/о +10.8 +4.7 66 +7 +7 1015.8 1012.9
11 13.07 СВ 7
{13}
н/о н/о +11.2 +5.3 67 +8 +8 1016.0 1013.1
12 13.07 СВ 8
{16}
н/о н/о +11.1 +5.0 66 +8 +8 1016.0 1013.1
13 13.07 СВ 9
{13}
н/о н/о +11.0 +5.3 68 +7 +7 1016.0 1013.1
14 13.07 СВ 10
{15}
н/о н/о +10.3 +5.1 70 +6 +6 1016.2 1013.3
15 13.07 СВ 10
{14}
н/о н/о +9.9 +5.9 76 +5 +5 1016.6 1013.7
16 13.07 СВ 12
{16}
н/о н/о +9.2 +5.4 77 +4 +4 1016.6 1013.6
17 13.07 СВ 10
{16}
н/о н/о +8.8 +4.8 76 +4 +4 1016.8 1013.8
18 13.07 СВ 10
{16}
н/о н/о +8.6 +5.0 78 +4 +4 1016.9 1013.9 +8.5 +11.8
19 13.07 СВ 10
{14}
н/о н/о +8.2 +4.8 79 +3 +3 1017.2 1014.2
20 13.07 СВ 9
{12}
н/о н/о +8.2 +4.1 75 +3 +3 1017.3 1014.3
21 13.07 СВ 8
{12}
н/о н/о +7.9 +3.6 74 +3 +3 1017.3 1014.3
22 13.07 СВ 9
{14}
н/о н/о +7.9 +3.4 73 +3 +3 1017.3 1014.3
23 13.07 СВ 8
{12}
н/о н/о +7.9 +3.4 73 +3 +3 1017.4 1014.4
00 14.07 СВ 7
{14}
н/о н/о +7.8 +3.3 73 +3 +3 1017.4 1014.4
01 14.07 СВ 7
{9}
н/о н/о +7.9 +3.8 75 +4 +4 1017.3 1014.3
02 14.07 СВ 6
{9}
н/о н/о +7.8 +4.0 77 +4 +4 1017.2 1014.2
03 14.07 СВ 5
{8}
н/о н/о +7.9 +3.2 72 +4 +4 1017.3 1014.3
04 14.07 С 7
{8}
н/о н/о +7.5 +4.3 80 +3 +3 1017.4 1014.4
05 14.07 СВ 3
{8}
н/о н/о +7.8 +4.0 77 +5 +5 1017.4 1014.4
06 14.07 СВ 5
{9}
н/о н/о +8.2 +4.1 75 +5 +5 1017.2 1014.2 +7.4 +8.6
07 14.07 СВ 5
{7}
н/о н/о +8.6 +3.9 72 +5 +5 1017.4 1014.4
08 14.07 С 4
{6}
н/о н/о +9.1 +4.1 71 +6 +6 1017.4 1014.4
09 14.07 С 3
{5}
н/о н/о +9.2 +4.8 74 +7 +7 1017.5 1014.5
10 14.07 С 3
{4}
н/о н/о +9.2 +5.4 77 +7 +7 1017.3 1014.3
11 14.07 С 4
{5}
н/о н/о +9.7 +5.3 74 +7 +7 1017.1 1014.2
12 14.07 С 5
{7}
н/о н/о +9.1 +5.1 76 +6 +6 1017.1 1014.1
13 14.07 С 5
{6}
н/о н/о +10.1 +4.9 70 +7 +7 1017.0 1014.1
14 14.07 С 4
{5}
н/о н/о +10.4 +5.4 71 +8 +8 1016.9 1014.0
15 14.07 С 4
{5}
н/о н/о +10.1 +5.1 71 +8 +8 1016.7 1013.8
16 14.07 С 5
{6}
н/о н/о +10.2 +5.0 70 +7 +7 1016.6 1013.7
17 14.07 С 4
{5}
н/о н/о +9.5 +4.5 71 +7 +7 1016.5 1013.6
18 14.07 С 3
{6}
н/о н/о +8.7 +4.2 73 +6 +6 1016.5 1013.5 +8.1 +10.6
19 14.07 СВ 3
{4}
н/о н/о +8.3 +4.1 75 +6 +6 1016.1 1013.1
20 14.07 С 3
{4}
н/о н/о +8.1 +4.1 76 +6 +6 1015.9 1012.9
21 14.07
{3}
н/о н/о +8.0 +4.2 77 1015.8 1012.8
22 14.07 С 2
{3}
н/о н/о +8.0 +4.4 78 +6 +6 1015.7 1012.7
23 14.07 С 2
{3}
н/о н/о +7.9 +4.5 79 +6 +6 1015.5 1012.5
00 15.07 З 1
{4}
н/о н/о +8.0 +4.6 79 +7 +7 1015.2 1012.2
01 15.07 З 1
{2}
н/о н/о +7.9 +4.9 81 +7 +7 1015.1 1012.1
02 15.07 СЗ 2
{2}
н/о н/о +7.9 +5.0 82 +6 +6 1015.0 1012.0
03 15.07 СЗ 2
{3}
н/о н/о +7.9 +5.7 86 +6 +6 1014.9 1011.9
04 15.07 СЗ 3
{3}
н/о н/о +7.9 +5.9 87 +5 +5 1014.9 1011.9
05 15.07 С 2
{3}
н/о н/о +8.2 +6.2 87 +6 +6 1014.9 1011.9
06 15.07 С 2
{4}
н/о н/о +8.6 +5.9 83 +7 +7 1014.8 1011.8 +7.8 +8.7
07 15.07 С 3
{4}
н/о н/о +9.1 +6.0 81 +7 +7 1014.5 1011.6
08 15.07 С 4
{6}
н/о н/о +9.3 +6.0 80 +6 +6 1014.6 1011.7
09 15.07 С 5
{7}
н/о н/о +8.8 +5.9 82 +5 +5 1014.8 1011.9
10 15.07 СВ 6
{7}
н/о н/о +8.3 +5.9 85 +4 +4 1015.0 1012.0
11 15.07 С 4
{7}
н/о н/о +9.2 +6.1 81 +6 +6 1014.9 1012.0
12 15.07 СВ 3
{7}
н/о н/о +10.3 +5.5 72 +8 +8 1015.0 1012.1
13 15.07 С 6
{8}
н/о н/о +9.8 +4.6 70 +6 +6 1015.1 1012.2
14 15.07 С 7
{9}
н/о н/о +9.4 +4.2 70 +6 +6 1015.2 1012.3
15 15.07 С 7
{9}
н/о н/о +9.4 +4.4 71 +6 +6 1015.3 1012.4
16 15.07 С 7
{8}
н/о н/о +9.2 +4.2 71 +5 +5 1015.4 1012.5
17 15.07 С 6
{8}
н/о н/о +9.4 +4.4 71 +6 +6 1015.6 1012.7
18 15.07 С 5
{9}
н/о н/о +8.9 +3.7 70 +6 +6 1015.9 1012.9 +8.3 +10.5
19 15.07 С 5
{6}
н/о н/о +8.4 +4.1 74 +5 +5 1015.9 1012.9
20 15.07 С 4
{5}
н/о н/о +8.0 +4.2 77 +5 +5 1016.1 1013.1
21 15.07 С 3
{4}
н/о н/о +7.7 +4.3 79 +5 +5 1016.2 1013.2
22 15.07 С 3
{4}
н/о н/о +7.6 +4.4 80 +5 +5 1016.3 1013.3
23 15.07 С 4
{5}
н/о н/о +7.7 +5.2 84 +4 +4 1016.4 1013.4
00 16.07
{6}
н/о н/о +7.4 +5.1 85 1016.5 1013.5
01 16.07 С 3
{5}
н/о н/о +7.4 +5.2 86 +4 +4 1016.6 1013.6
02 16.07 СВ 3
{4}
н/о н/о +7.7 +5.4 85 +5 +5 1016.7 1013.7
03 16.07 С 3
{4}
н/о н/о +7.8 +5.4 85 +5 +5 1016.8 1013.8
04 16.07
{4}
н/о н/о +7.9 +5.5 85 1016.8 1013.8
05 16.07 С 3
{3}
н/о н/о +8.3 +5.8 84 +6 +6 1016.9 1013.9
06 16.07 С 2
{5}
н/о н/о +8.8 +5.9 82 +7 +7 1017.1 1014.1 +7.3 +8.9
07 16.07 С 2
{3}
н/о н/о +9.1 +5.5 78 +7 +7 1017.1 1014.1
08 16.07 С 4
{5}
н/о н/о +9.0 +5.8 80 +6 +6 1017.1 1014.1
09 16.07 С 5
{6}
н/о н/о +9.3 +6.0 80 +6 +6 1017.0 1014.1
10 16.07 С 5
{6}
н/о н/о +9.9 +6.1 77 +7 +7 1017.1 1014.2
11 16.07 С 5
{6}
н/о н/о +10.0 +5.0 71 +7 +7 1017.2 1014.3
12 16.07 С 5
{7}
н/о н/о +10.0 +4.8 70 +7 +7 1017.3 1014.4
13 16.07 С 5
{7}
н/о н/о +10.6 +5.4 70 +8 +8 1017.4 1014.5
14 16.07 С 6
{7}
н/о н/о +10.4 +3.9 64 +7 +7 1017.2 1014.3
15 16.07 С 5
{7}
н/о н/о +10.5 +4.7 67 +8 +8 1017.5 1014.6
16 16.07 С 5
{7}
н/о н/о +10.0 +4.2 67 +7 +7 1017.6 1014.7
17 16.07 С 4
{7}
н/о н/о +9.5 +3.5 66 +7 +7 1017.7 1014.8
18 16.07 С 3
{7}
н/о н/о +9.6 +4.0 68 +8 +8 1017.8 1014.8 +8.6 +10.8
19 16.07 СВ 2
{5}
н/о н/о +9.5 +3.9 68 +8 +8 1017.6 1014.7
20 16.07 Ю 2
{4}
н/о н/о +8.9 +3.9 71 +7 +7 1017.7 1014.7
21 16.07 СЗ 1
{3}
н/о н/о +8.8 +4.1 72 +8 +8 1017.7 1014.7
22 16.07 С 2
{6}
н/о н/о +8.4 +3.7 72 +7 +7 1017.8 1014.8
23 16.07 СВ 3
{6}
н/о н/о +7.9 +3.6 74 +5 +5 1017.8 1014.8
00 17.07 С 1
{6}
н/о н/о +7.6 +3.7 76 +7 +7 1017.7 1014.7
01 17.07 СВ 3
{5}
н/о н/о +7.4 +3.8 78 +5 +5 1017.5 1014.5
03 17.07 С 5
{5}
н/о н/о +8.4 +4.6 77 +5 +5 1017.2 1014.2
04 17.07 С 4
{5}
н/о н/о +8.6 +4.1 73 +6 +6 1016.8 1013.8
05 17.07 С 3
{4}
н/о н/о +8.7 +4.0 72 +6 +6 1016.8 1013.8
06 17.07
{6}
н/о н/о +9.1 +4.1 71 1016.4 1013.4 +7.3 +9.6
07 17.07 С 3
{4}
н/о н/о +9.7 +4.3 69 +8 +8 1016.1 1013.2
08 17.07
{4}
н/о н/о +10.0 +4.6 69 1015.9 1013.0
09 17.07 СЗ 3
{4}
н/о н/о +9.7 +4.5 70 +8 +8 1015.8 1012.9
10 17.07 С 2
{3}
н/о н/о +9.6 +4.6 71 +8 +8 1015.8 1012.9

 

Местоположение метеостанции Маяк Torsvag (Норвегия): широта 70.25 долгота 19.50 высота над уровнем моря 21 м.

В архиве по умолчанию представлена погода на Маяке Torsvag за последнюю неделю. Архивные данные за месяц целиком и за предыдущие месяцы, начиная с января 2011 года, Вы можете получить, выбрав интересующий диапазон дат из раскрывающегося списка и нажав кнопку "Ввод!".


*Определитесь, кто Вы:
робот инопланетянин человек

Внимание! Время в таблицах - всемирное. Для получения местного времени необходимо прибавить поправку, которая равна 1 ч.

Смотрите также архив погоды в соседних городах и на ближайших метеорологических станциях:

Погода в Тромсё аэропорту (Норвегия) (67 км)
Погода в Тромсё (Норвегия) (70 км)
Погода в Тромсё (Холт) (Норвегия) (70 км)
Погода в Сёрхьюсен аэропорту (Норвегия) (75 км)
Погода в Люнгене (Норвегия) (80 км)
Погода в Норднесфьеллете (Норвегия) (84 км)
Погода на Маяке Hekkingen (Норвегия) (96 км)
Погода в Шиботне (Норвегия) (101 км)
Погода в Хасвик аэропорту (Норвегия) (103 км)
Погода на Хасвике (Норвегия) (116 км)

Пояснения к столбцам:

Ветер - указаны скорость ветра в м/с - средняя за 10 мин, порывы в срок и между сроками (в фигурных скобках) и направление, откуда дует ветер: С - северный, СВ - северо-восточный, В - восточный, ЮВ - юго-восточный, Ю - южный, ЮЗ - юго-западный, З - западный, СЗ - северо-западный.
Видимость - горизонтальная дальность видимости в метрах или километрах. При видимости от 1 до 10 км при отсутствии осадков обычно наблюдается дымка, при ухудшении видимости до 1 км и менее - туман. В сухую погоду видимость может ухудшаться дымом, пылью или мглою.
Явления - указаны атмосферные явления, наблюдавшиеся в срок или в последний час перед сроком; фигурными скобками обозначены явления, наблюдавшиеся между сроками (за 1-3 часа до срока); квадратными скобками обозначены град или гололедные отложения с указанием их диаметра в мм.
Облачность - указаны через наклонную черту общая и нижняя облачность в баллах и высота нижней границы облаков в метрах; квадратными скобками обозначены формы облаков: Ci - перистые, Cs - перисто-слоистые, Cc - перисто-кучевые, Ac - высококучевые, As - высокослоистые, Sc - слоисто-кучевые, Ns - слоисто-дождевые, Cu - кучевые, Cb - кучево-дождевые. Подробнее классификацию облаков см. в Атласе облаков (PDF).
T - Температура воздуха - температура, измеренная на высоте 2 м над землей.
Td - Температура точки росы - температура, при понижении до которой содержащийся в воздухе водяной пар достигнет насыщения.
f - Относительная влажность воздуха - влажноcть воздуха, измеренная на высоте 2 м над землей.
Te - Эффективная температура - температура, которую ощущает одетый по сезону человек в тени. Характеристика душности погоды. При расчете учитывается влияние влажности воздуха и скорости ветра на теплоощущения человека.
Tes - Эффективная температура на солнце - температура, которую ощущает человек, с поправкой на солнечный нагрев. Характеристика знойности погоды. Зависит от высоты солнца над горизонтом, облачности и скорости ветра. Ночью, в пасмурную погоду, а также при ветре 12 м/с и более поправка равна нулю.
P - Атмосферное давление - приведенное к уровню моря атмосферное давление.
Po - Атмосферное давление - измеренное на уровне метеостанции атмосферное давление.
Tmin - Минимальная температура - минимум температуры воздуха на высоте 2 м над землей.
Tmax - Максимальная температура - максимум температуры воздуха на высоте 2 м над землей.
R - Количество осадков - Количество выпавших осадков за период времени, мм. При наведении курсора мыши на число - период времени, за который выпало указанное количество осадков.
R24 - Количество осадков - Количество выпавших осадков за 24 часа, мм.
S - Снежный покров - Высота снежного покрова, см. При наведении курсора мыши на число - состояние снежного покрова и степень покрытия местности в баллах.